Regional Weather Roundup
Issued by NWS Newport/Morehead, NC

Current Version | Previous Version | Graphics & Text | Print | Product List | Glossary Off
Versions: 1 2 3 4 5 6 7 8 9 10 11 12 13 14 15 16 17 18 19 20 21 22 23 24 25 26 27 28 29 30 31 32 33 34 35 36 37 38 39 40 41 42 43 44 45 46 47 48 49 50

000
ASUS42 KMHX 171522
RWRMHX
WEATHER ROUNDUP FOR EASTERN NORTH CAROLINA
NATIONAL WEATHER SERVICE NEWPORT/MOREHEAD CITY NC
1000 AM EST WED DEC 17 2014

NOTE: "FAIR" INDICATES FEW OR NO CLOUDS BELOW 12,000 FEET
WITH NO SIGNIFICANT WEATHER AND/OR OBSTRUCTIONS TO VISIBILITY

NCZ015>017-031-032-045>047-102-103-171600-
NORTH COAST

CITY           SKY/WX    TMP DP  RH WIND       PRES   REMARKS
EDENTON        SUNNY     52  42  70 NW8       30.09R
ELIZABETH CITY SUNNY     53  42  66 W8        30.07R
KITTY HAWK     SUNNY     49  45  86 W5        30.06R
MANTEO         SUNNY     48  43  81 NW9       30.08R

$$

NCZ045>047-081-094-103-104-171600-
CENTRAL COAST

CITY           SKY/WX    TMP DP  RH WIND       PRES   REMARKS
FRISCO         SUNNY     50  44  80 NW9       30.09R
SWANQUARTER      N/A     54 N/A N/A NW10      30.06S

$$

NCZ095-097-098-100-101-171600-
SOUTHERN COAST

CITY           SKY/WX    TMP DP  RH WIND       PRES   REMARKS
BEAUFORT       SUNNY     55  43  63 NW9       30.11R
CEDAR ISLAND     N/A     52 N/A N/A NW12      30.15R
JACKSONVILLE   SUNNY     53  41  63 NW8       30.12R
PINEY ISLAND   SUNNY     54  42  64 W10       30.10R
WILMINGTON     SUNNY     54  42  64 NW7       30.13R


$$

NCZ011>013-027>030-043-044-078>080-089-090>093-098-171600-
COASTAL PLAIN

CITY           SKY/WX    TMP DP  RH WIND       PRES   REMARKS
AHOSKIE        SUNNY     49  42  78 W3        30.09R
CLINTON        SUNNY     50  44  79 NW3       30.13S
ELIZABETHTOWN  SUNNY     51  42  71 NW3       30.14R
GOLDSBORO      SUNNY     52  47  83 NW5       30.10R
GREENVILLE     SUNNY     52  41  66 NW9       30.12R
HAVELOCK       SUNNY     55  40  56 NW8       30.12R
KENANSVILLE    SUNNY     53  40  61 NW6       30.13S
KINSTON        SUNNY     54  43  66 NW7       30.12R
NEW BERN       SUNNY     55  41  59 NW7       30.12R
RICHLANDS      SUNNY     54  39  58 W3        30.13S
ROCKY MOUNT    SUNNY     52  40  63 NW8       30.11R
WASHINGTON     SUNNY     50  42  72 NW5       30.11R
WHITEVILLE     SUNNY     52  42  68 NW3       30.14R

$$

AMZ130-135-150-152-154-156-158-170-250-252-270-ANZ085-086-088-633-658-670-171600-
MARINE OBSERVATIONS

STATION/POSITION TIME  TEMP    WIND        PRES    WAVE   SWELL
                       AIR SEA DIR/SP/G            HT/PER HT/PER
                 (UTC) (F)     (DEG/KT/KT) (MB)    (FT/S) (FT/S)
CHESAPEAKE LIGHT 1500   48     280/  8/  9 1018.3
64 E VA BEACH    1500   51 54  300/ 12/ 14 1016.9    4/ 7   3/ 7
DUCK             1500   48 49  300/  6/  9 1017.3
2 E DUCK         1500      48                N/A     2/11
10 NE DUCK       1400      51                N/A     2/ 8
OREGON INLET     1500   50 50  290/  7/  9 1018.4
13E OREGON INLT  1400      53                N/A     3/ 8
HATTERAS CG      1500   49 53  320/ 11/ 13 1019.1
DIAMOND BUOY     1400   54                 1017.8    5/ 8
17 S OCRACOKE    NOT AVBL
CAPE LOOKOUT     1500   53     310/  7/  9 1019.5
BEAUFORT LAB     1500   54 52  330/  8/ 12 1018.6
30 SE NEW RIVER  1500   54 61  330/ 16/ 19 1020.4    4/ 7   2/ 7
5 SE WRIGHTSVLE  1500   53 55  340/ 12/ 14 1020.3
225 S CAPE HAT   1357   70 73  300/ 16/ 21 1019.2   10/ 8   7/ 8
41 SE CHARLESTON 1500   58 73  360/ 12/ 14 1020.8    3/ 4   2/ 6

$$



USA.gov is the U.S. government's official web portal to all federal, state and local government web resources and services.